Home   Weather   Ponta Delgada   Past weeks

Flag for Portugal Past Weather in Ponta Delgada, Azores, Portugal — Yesterday and Last 2 Weeks

Now
70 °F

Passing clouds.


Feels Like: 70 °F
Forecast: 68 / 75 °F
Wind: 5 mph from Northeast

Location: Ponta Delgada / Nordela Acores

Current Time: Sep 28, 2016 at 7:06:46 AM

Latest Report: Sep 28, 2016 at 6:30 AM


Visibility: N/A

Pressure: 30.36 "Hg

Humidity: 78%

Dew Point: 63 °F

Location of Ponta DelgadaLocation

Past Weather in Ponta Delgada — Graph

°F

Ponta Delgada Temperature Yesterday

Maximum temperature yesterday: 77 °F (at 1:00 PM)
Minimum temperature yesterday: 70 °F (at 6:30 AM)
Average temperature yesterday: 73 °F

High & Low Weather Summary for the Past Weeks

 TemperatureHumidityPressure
High79 °F (Sep 18, 2:00 PM)94% (Sep 19, 11:00 AM)30.42 "Hg (Sep 19, 11:00 AM)
Low59 °F (Sep 13, 7:30 AM)47% (Sep 13, 4:00 PM)30.09 "Hg (Sep 21, 5:00 PM)
Average70 °F77%30.28 "Hg
* Reported Sep 13 6:00 AM — Sep 28 6:00 AM, Ponta Delgada, Weather by CustomWeather, © 2016

Note: Actual official high and low records may vary slightly from our data, if they occured in-between our weather recording intervals... More about our weather records

Advertising

Ponta Delgada Weather History for the Previous 24 Hours

Scroll right to see more
 ConditionsComfort  
Time TempWeatherWind HumidityBarometerVisibility
6:00 AM
Wed, Sep 28
70 °FPassing clouds.3 mph78%30.36 "HgN/A
5:30 AM72 °FPassing clouds.6 mph73%30.36 "HgN/A
5:00 AM72 °FPassing clouds.5 mph78%30.36 "HgN/A
4:30 AM72 °FPassing clouds.6 mph73%30.36 "HgN/A
4:00 AM72 °FPassing clouds.3 mph73%30.39 "HgN/A
3:30 AM72 °FPassing clouds.3 mph78%30.39 "HgN/A
3:00 AM70 °FPassing clouds.5 mph83%30.39 "HgN/A
2:30 AM70 °FPassing clouds.5 mph88%30.39 "HgN/A
2:00 AM70 °FPassing clouds.3 mph83%30.42 "HgN/A
1:30 AM70 °FPassing clouds.5 mph83%30.42 "HgN/A
1:00 AM70 °FPassing clouds.6 mph83%30.42 "HgN/A
12:00 AM72 °FPassing clouds.5 mph83%30.42 "HgN/A
11:30 PM
Tue, Sep 27
72 °FPassing clouds.5 mph83%30.42 "HgN/A
11:00 PM72 °FPassing clouds.6 mph83%30.42 "HgN/A
10:30 PM72 °FPassing clouds.8 mph83%30.42 "HgN/A
10:00 PM72 °FPassing clouds.9 mph83%30.42 "HgN/A
9:30 PM72 °FPassing clouds.9 mph83%30.42 "HgN/A
9:00 PM72 °FPassing clouds.8 mph83%30.39 "HgN/A
8:30 PM72 °FPassing clouds.9 mph83%30.39 "HgN/A
8:00 PM72 °FPassing clouds.9 mph83%30.39 "HgN/A
7:30 PM72 °FPassing clouds.10 mph83%30.36 "HgN/A
7:00 PM73 °FPassing clouds.12 mph78%30.36 "HgN/A
6:30 PM73 °FPassing clouds.10 mph74%30.36 "HgN/A
6:00 PM75 °FPassing clouds.13 mph69%30.36 "HgN/A
5:30 PM75 °FPassing clouds.13 mph69%30.36 "HgN/A
5:00 PM75 °FPassing clouds.14 mph69%30.36 "HgN/A
4:30 PM75 °FPassing clouds.15 mph69%30.36 "HgN/A
4:00 PM75 °FPassing clouds.15 mph65%30.36 "HgN/A
3:30 PM77 °FPassing clouds.15 mph61%30.39 "HgN/A
3:00 PM77 °FPassing clouds.14 mph65%30.39 "HgN/A
2:30 PM77 °FPassing clouds.14 mph65%30.39 "HgN/A
2:00 PM75 °FScattered clouds.14 mph69%30.39 "HgN/A
1:30 PM75 °FPartly sunny.13 mph69%30.39 "HgN/A
1:00 PM77 °FPassing clouds.12 mph65%30.42 "HgN/A
12:30 PM75 °FPassing clouds.12 mph69%30.39 "HgN/A
12:00 PM75 °FPassing clouds.10 mph69%30.42 "HgN/A
11:30 AM75 °FPassing clouds.10 mph69%30.42 "HgN/A
11:00 AM75 °FPassing clouds.10 mph69%30.42 "HgN/A
10:30 AM75 °FPassing clouds.10 mph69%30.42 "HgN/A
10:00 AM73 °FPassing clouds.10 mph74%30.39 "HgN/A
9:30 AM73 °FPassing clouds.8 mph74%30.39 "HgN/A
9:00 AM72 °FPassing clouds.9 mph78%30.39 "HgN/A
8:30 AM72 °FPassing clouds.7 mph78%30.36 "HgN/A
8:00 AM72 °FPassing clouds.7 mph78%30.36 "HgN/A
7:30 AM72 °FPassing clouds.7 mph78%30.36 "HgN/A
7:00 AM72 °FPassing clouds.9 mph78%30.36 "HgN/A
Weather by CustomWeather, © 2016

See weather overviewHow to use our weather pages